Regional Weather Roundup
Issued by NWS Newport/Morehead, NC

Current Version | Previous Version | Text Only | Print | Product List | Glossary Off
Versions: 1 2 3 4 5 6 7 8 9 10 11 12 13 14 15 16 17 18 19 20 21 22 23 24 25 26 27 28 29 30 31 32 33 34 35 36 37 38 39 40 41 42 43 44 45 46 47 48 49 50
000 ASUS42 KMHX 230525 RWRMHX WEATHER ROUNDUP FOR EASTERN NORTH CAROLINA NATIONAL WEATHER SERVICE NEWPORT/MOREHEAD CITY NC 100 AM EDT TUE MAY 23 2017 NOTE: "FAIR" INDICATES FEW OR NO CLOUDS BELOW 12,000 FEET WITH NO SIGNIFICANT WEATHER AND/OR OBSTRUCTIONS TO VISIBILITY NCZ015>017-031-032-045>047-102-103-230600- NORTH COAST CITY SKY/WX TMP DP RH WIND PRES REMARKS EDENTON CLOUDY 72 68 87 CALM 29.96S ELIZABETH CITY CLOUDY 70 69 97 S3 29.95F KITTY HAWK NOT AVBL MANTEO CLOUDY 69 67 94 SW8 29.95F $$ NCZ045>047-081-094-103-104-230600- CENTRAL COAST CITY SKY/WX TMP DP RH WIND PRES REMARKS FRISCO LGT RAIN 70 66 87 SW6 29.97F $$ NCZ095-097-098-100-101-230600- SOUTHERN COAST CITY SKY/WX TMP DP RH WIND PRES REMARKS BEAUFORT LGT RAIN 73 69 87 NW5 29.96F CEDAR ISLAND NOT AVBL JACKSONVILLE NOT AVBL PINEY ISLAND LGT RAIN N/A N/A N/A S5 29.96F WILMINGTON CLOUDY 69 67 93 S3 29.97F $$ NCZ011>013-027>030-043-044-078>080-089-090>093-098-230600- COASTAL PLAIN CITY SKY/WX TMP DP RH WIND PRES REMARKS AHOSKIE N/A 65 65 99 CALM 29.95F FOG CLINTON CLOUDY 68 68 100 CALM 29.96F ELIZABETHTOWN CLOUDY 67 67 100 CALM 29.95F GOLDSBORO MOCLDY 68 68 100 S3 29.93F GREENVILLE LGT RAIN 70 70 100 SW7 29.97F HAVELOCK NOT AVBL KENANSVILLE LGT RAIN 66 66 100 CALM 29.96F FOG KINSTON CLOUDY 68 67 96 CALM 29.95F NEW BERN LGT RAIN 68 68 100 SW5 29.98F RICHLANDS CLOUDY 67 66 97 CALM 29.98F ROCKY MOUNT MOCLDY 71 69 93 SW7 29.95F WASHINGTON DRIZZLE 68 67 96 SW6 29.95F WHITEVILLE CLOUDY 67 66 96 SE3 29.94F $$ AMZ130-135-150-152-154-156-158-170-250-252-270-ANZ085-086-088-633-658-670-230600- MARINE OBSERVATIONS STATION/POSITION TIME TEMP WIND PRES WAVE SWELL AIR SEA DIR/SP/G HT/PER HT/PER (UTC) (F) (DEG/KT/KT) (MB) (FT/S) (FT/S) CHESAPEAKE LIGHT NOT AVBL 64 E VA BEACH 0450 65 65 270/ 10/ 12 1014.3 4/ 8 3/ 8 DUCK 0500 71 65 230/ 9/ 11 1013.7 2 E DUCK 0500 65 N/A 2/ 8 OREGON INLET 0500 74 200/ 15/ 18 1013.9 13E OREGON INLT 0448 65 N/A 3/ 8 2/ 8 HATTERAS CG 0500 72 76 170/ 7/ 10 1014.5 DIAMOND BUOY 0450 75 78 240/ 10/ 10 1015.0 3/ 8 3/ 8 CAPE LOOKOUT 0500 73 250/ 7/ 9 1014.5 BEAUFORT LAB 0500 73 75 280/ 1/ 5 1014.0 30 SE NEW RVR IN 0508 71 76 280/ 4/ 6 1015.0 30 SE NEW RVR IN 0443 76 N/A 3/ 5 27 SE WRIGHTSVLE 0508 70 76 60/ 2/ 6 1026.0 5 SE WRIGHTSVLE 0508 71 74 130/ 6/ 8 1015.2 225 S CAPE HAT 0450 76 76 170/ 12/ 16 1017.9 3/ 8 2/ 8 41 SE CHARLESTON 0510 78 78 180/ 14/ 16 1013.1 $$

USA.gov is the U.S. government's official web portal to all federal, state and local government web resources and services.